• In Hungary
  • List of Countries
  • For 7 days
  • Water Temperature
  • Satellite Maps
  • Weather Map
  • News
  • Weather Widgets
  • user-avatar
    Login

    Hourly Weather Austin

    Today, 23 February, Friday

    Time Temperature Precipitation Wind Pressure Humidity
    00:00 +6°C° 0.6 mm 2 mps 749 mmHg 91%
    01:00 +7°C° 0.6 mm 2 mps 749 mmHg 93%
    02:00 +7°C° 0.6 mm 2 mps 748 mmHg 95%
    03:00 +8°C° 0.2 mm 2 mps 748 mmHg 95%
    04:00 +8°C° 0.2 mm 2 mps 748 mmHg 96%
    05:00 +8°C° 0 mm 2 mps 748 mmHg 96%
    06:00 +9°C° 0.3 mm 2 mps 748 mmHg 96%
    07:00 +12°C° 0.3 mm 2 mps 747 mmHg 97%
    08:00 +13°C° 0.3 mm 2 mps 747 mmHg 97%
    09:00 +15°C° 0.1 mm 2 mps 747 mmHg 95%
    10:00 +17°C° 0.1 mm 3 mps 747 mmHg 93%
    11:00 +19°C° 0.1 mm 4 mps 747 mmHg 91%
    12:00 +21°C° 0.2 mm 5 mps 747 mmHg 87%
    13:00 +22°C° 0.2 mm 5 mps 746 mmHg 82%
    14:00 +23°C° 0.2 mm 6 mps 746 mmHg 77%
    15:00 +23°C° 0.1 mm 5 mps 745 mmHg 80%
    16:00 +22°C° 0.1 mm 4 mps 745 mmHg 82%
    17:00 +21°C° 0.1 mm 4 mps 744 mmHg 85%
    18:00 +21°C° 0 mm 4 mps 744 mmHg 88%
    19:00 +20°C° 0 mm 4 mps 744 mmHg 91%
    20:00 +19°C° 0 mm 3 mps 744 mmHg 94%
    21:00 +19°C° 0 mm 3 mps 744 mmHg 95%
    22:00 +19°C° 0 mm 3 mps 744 mmHg 97%
    23:00 +18°C° 0 mm 3 mps 744 mmHg 98%

    Tomorrow, 24 February, Saturday

    Time Temperature Precipitation Wind Pressure Humidity
    00:00 +19°C° 0.1 mm 4 mps 743 mmHg 98%
    01:00 +19°C° 0.1 mm 4 mps 743 mmHg 97%
    02:00 +20°C° 0.1 mm 4 mps 742 mmHg 97%
    03:00 +20°C° 0.1 mm 4 mps 742 mmHg 97%
    04:00 +20°C° 0.1 mm 5 mps 742 mmHg 96%
    05:00 +20°C° 0.1 mm 5 mps 741 mmHg 96%
    06:00 +21°C° 0.1 mm 6 mps 741 mmHg 94%
    07:00 +21°C° 0.1 mm 7 mps 742 mmHg 93%
    08:00 +21°C° 0.1 mm 7 mps 742 mmHg 91%
    09:00 +22°C° 0.3 mm 7 mps 742 mmHg 90%
    10:00 +22°C° 0.3 mm 6 mps 742 mmHg 88%
    11:00 +23°C° 0.3 mm 6 mps 742 mmHg 87%
    12:00 +23°C° 0.2 mm 5 mps 742 mmHg 80%
    13:00 +25°C° 0.2 mm 5 mps 741 mmHg 74%
    14:00 +26°C° 0.2 mm 4 mps 741 mmHg 68%
    15:00 +25°C° 0.1 mm 4 mps 741 mmHg 63%
    16:00 +24°C° 0.1 mm 3 mps 742 mmHg 59%
    17:00 +22°C° 0.1 mm 3 mps 742 mmHg 55%
    18:00 +20°C° 0 mm 3 mps 742 mmHg 51%
    19:00 +19°C° 0 mm 3 mps 743 mmHg 48%
    20:00 +18°C° 0 mm 3 mps 744 mmHg 45%
    21:00 +17°C° 0 mm 3 mps 744 mmHg 43%
    22:00 +16°C° 0 mm 3 mps 744 mmHg 42%
    23:00 +15°C° 0 mm 2 mps 744 mmHg 41%

    Day after tomorrow, 25 February, Sunday

    Time Temperature Precipitation Wind Pressure Humidity
    00:00 +15°C° 0 mm 2 mps 744 mmHg 41%
    01:00 +15°C° 0 mm 2 mps 744 mmHg 41%
    02:00 +14°C° 0 mm 2 mps 744 mmHg 41%
    03:00 +14°C° 0 mm 2 mps 744 mmHg 40%
    04:00 +14°C° 0 mm 2 mps 744 mmHg 39%
    05:00 +14°C° 0 mm 2 mps 744 mmHg 38%
    06:00 +15°C° 0 mm 2 mps 745 mmHg 40%
    07:00 +15°C° 0 mm 1 mps 745 mmHg 43%
    08:00 +16°C° 0 mm 1 mps 746 mmHg 45%
    09:00 +18°C° 0.1 mm 1 mps 746 mmHg 44%
    10:00 +18°C° 0.1 mm 2 mps 746 mmHg 42%
    11:00 +19°C° 0.1 mm 2 mps 746 mmHg 41%
    12:00 +20°C° 0 mm 2 mps 746 mmHg 40%
    13:00 +22°C° 0 mm 1 mps 745 mmHg 40%
    14:00 +23°C° 0 mm 1 mps 744 mmHg 39%
    15:00 +22°C° 0 mm 1 mps 744 mmHg 43%
    16:00 +21°C° 0 mm 1 mps 745 mmHg 47%
    17:00 +20°C° 0 mm 1 mps 745 mmHg 51%
    18:00 +19°C° 0 mm 1 mps 745 mmHg 57%
    19:00 +16°C° 0 mm 2 mps 746 mmHg 64%
    20:00 +15°C° 0 mm 2 mps 746 mmHg 71%
    21:00 +14°C° 0 mm 1 mps 746 mmHg 73%
    22:00 +14°C° 0 mm 1 mps 747 mmHg 75%
    23:00 +13°C° 0 mm 1 mps 747 mmHg 77%

    26 February, Monday

    Time Temperature Precipitation Wind Pressure Humidity
    00:00 +13°C° 0 mm 1 mps 747 mmHg 74%
    01:00 +13°C° 0 mm 1 mps 747 mmHg 71%
    02:00 +13°C° 0 mm 2 mps 747 mmHg 68%
    03:00 +12°C° 0 mm 2 mps 747 mmHg 67%
    04:00 +12°C° 0 mm 2 mps 748 mmHg 65%
    05:00 +10°C° 0 mm 2 mps 748 mmHg 63%
    06:00 +13°C° 0 mm 2 mps 749 mmHg 59%
    07:00 +14°C° 0 mm 2 mps 749 mmHg 56%
    08:00 +14°C° 0 mm 3 mps 750 mmHg 52%
    09:00 +17°C° 0 mm 3 mps 750 mmHg 46%
    10:00 +19°C° 0 mm 3 mps 750 mmHg 40%
    11:00 +21°C° 0 mm 3 mps 750 mmHg 34%
    12:00 +22°C° 0 mm 3 mps 749 mmHg 34%
    13:00 +22°C° 0 mm 3 mps 748 mmHg 34%
    14:00 +23°C° 0 mm 4 mps 748 mmHg 34%
    15:00 +21°C° 0 mm 3 mps 747 mmHg 41%
    16:00 +20°C° 0 mm 3 mps 747 mmHg 48%
    17:00 +19°C° 0 mm 3 mps 747 mmHg 56%
    18:00 +18°C° 0 mm 2 mps 747 mmHg 58%
    19:00 +17°C° 0 mm 2 mps 747 mmHg 60%
    20:00 +16°C° 0 mm 2 mps 748 mmHg 61%
    21:00 +15°C° 0 mm 2 mps 747 mmHg 62%
    22:00 +15°C° 0 mm 2 mps 747 mmHg 63%
    23:00 +15°C° 0 mm 2 mps 747 mmHg 64%

    27 February, Tuesday

    Time Temperature Precipitation Wind Pressure Humidity
    00:00 +15°C° 0 mm 2 mps 747 mmHg 67%
    01:00 +15°C° 0 mm 2 mps 746 mmHg 71%
    02:00 +15°C° 0 mm 2 mps 746 mmHg 74%
    03:00 +15°C° 0 mm 2 mps 746 mmHg 77%
    04:00 +16°C° 0 mm 3 mps 745 mmHg 79%
    05:00 +16°C° 0 mm 3 mps 745 mmHg 82%
    06:00 +16°C° 0.1 mm 3 mps 745 mmHg 84%
    07:00 +17°C° 0.1 mm 4 mps 746 mmHg 87%
    08:00 +17°C° 0.1 mm 4 mps 746 mmHg 90%
    09:00 +18°C° 0.2 mm 4 mps 746 mmHg 90%
    10:00 +19°C° 0.2 mm 4 mps 745 mmHg 90%
    11:00 +20°C° 0.2 mm 4 mps 745 mmHg 91%
    12:00 +21°C° 0.1 mm 4 mps 744 mmHg 90%
    13:00 +21°C° 0.1 mm 4 mps 743 mmHg 89%
    14:00 +22°C° 0.1 mm 4 mps 742 mmHg 88%
    15:00 +22°C° 0.1 mm 4 mps 742 mmHg 90%
    16:00 +22°C° 0.1 mm 4 mps 741 mmHg 91%
    17:00 +21°C° 0.1 mm 4 mps 741 mmHg 93%
    18:00 +21°C° 0.1 mm 4 mps 741 mmHg 95%
    19:00 +21°C° 0.1 mm 4 mps 741 mmHg 96%
    20:00 +21°C° 0.1 mm 4 mps 741 mmHg 97%
    21:00 +21°C° 0.1 mm 4 mps 741 mmHg 97%
    22:00 +21°C° 0.1 mm 5 mps 741 mmHg 96%
    23:00 +20°C° 0.1 mm 5 mps 740 mmHg 96%

    28 February, Wednesday

    Time Temperature Precipitation Wind Pressure Humidity
    00:00 +20°C° 0.1 mm 6 mps 740 mmHg 95%
    01:00 +20°C° 0.1 mm 6 mps 739 mmHg 94%
    02:00 +20°C° 0.1 mm 6 mps 739 mmHg 93%
    03:00 +20°C° 0.3 mm 5 mps 739 mmHg 93%
    04:00 +19°C° 0.3 mm 5 mps 738 mmHg 94%
    05:00 +19°C° 0.3 mm 5 mps 738 mmHg 94%
    06:00 +20°C° 0.3 mm 5 mps 738 mmHg 91%
    07:00 +20°C° 0.3 mm 6 mps 738 mmHg 87%
    08:00 +21°C° 0.3 mm 6 mps 738 mmHg 84%
    09:00 +22°C° 0 mm 7 mps 739 mmHg 69%
    10:00 +23°C° 0 mm 8 mps 739 mmHg 53%
    11:00 +24°C° 0 mm 9 mps 739 mmHg 38%
    12:00 +24°C° 0 mm 9 mps 739 mmHg 34%
    13:00 +24°C° 0 mm 10 mps 739 mmHg 30%
    14:00 +23°C° 0 mm 10 mps 739 mmHg 27%
    15:00 +22°C° 0 mm 8 mps 740 mmHg 30%
    16:00 +20°C° 0 mm 6 mps 740 mmHg 33%
    17:00 +19°C° 0 mm 5 mps 740 mmHg 37%
    18:00 +18°C° 0 mm 4 mps 740 mmHg 36%
    19:00 +17°C° 0 mm 4 mps 741 mmHg 34%
    20:00 +16°C° 0 mm 3 mps 741 mmHg 33%
    21:00 +14°C° 0 mm 3 mps 741 mmHg 32%
    22:00 +14°C° 0 mm 3 mps 741 mmHg 31%
    23:00 +14°C° 0 mm 4 mps 742 mmHg 29%
    Show more